Regional Weather Roundup
Issued by NWS Newport/Morehead, NC

Current Version | Previous Version | Text Only | Print | Product List | Glossary On
Versions: 1 2 3 4 5 6 7 8 9 10 11 12 13 14 15 16 17 18 19 20 21 22 23 24 25 26 27 28 29 30 31 32 33 34 35 36 37 38 39 40 41 42 43 44 45 46 47 48 49 50
000 ASUS42 KMHX 231614 RWRMHX WEATHER ROUNDUP FOR EASTERN NORTH CAROLINA NATIONAL WEATHER SERVICE NEWPORT/MOREHEAD CITY NC 1200 PM EDT SAT SEP 23 2017 NOTE: "FAIR" INDICATES FEW OR NO CLOUDS BELOW 12,000 FEET WITH NO SIGNIFICANT WEATHER AND/OR OBSTRUCTIONS TO VISIBILITY NCZ015>017-031-032-045>047-102-103-231700- NORTH COAST CITY SKY/WX TMP DP RH WIND PRES REMARKS EDENTON MOSUNNY 82 67 60 N5 30.06S ELIZABETH CITY MOSUNNY 82 68 62 N3 30.05S KITTY HAWK SUNNY 78 64 62 CALM 30.04S MANTEO SUNNY 79 65 60 N7 30.05S $$ NCZ045>047-081-094-103-104-231700- CENTRAL COAST CITY SKY/WX TMP DP RH WIND PRES REMARKS FRISCO MOSUNNY 83 65 54 N8 30.04F $$ NCZ095-097-098-100-101-231700- SOUTHERN COAST CITY SKY/WX TMP DP RH WIND PRES REMARKS BEAUFORT SUNNY 83 68 60 N12 30.04S CEDAR ISLAND NOT AVBL JACKSONVILLE SUNNY 83 67 58 N8 30.04S PINEY ISLAND N/A N/A N/A N/A NE9 30.04F WILMINGTON SUNNY 85 68 56 N10 30.03F $$ NCZ011>013-027>030-043-044-078>080-089-090>093-098-231700- COASTAL PLAIN CITY SKY/WX TMP DP RH WIND PRES REMARKS AHOSKIE MOSUNNY 79 64 60 N5 30.07S CLINTON SUNNY 83 67 57 NE10 30.06S ELIZABETHTOWN NOT AVBL GOLDSBORO MOSUNNY 80 66 63 NE8 30.05S GREENVILLE MOSUNNY 81 64 57 NE8 30.08S HAVELOCK SUNNY 83 67 58 NE9 30.05F KENANSVILLE MOSUNNY 82 66 57 NE5 30.07R KINSTON MOSUNNY 82 63 51 NE9 30.07S NEW BERN SUNNY 81 67 62 N9 30.06S RICHLANDS MOSUNNY 83 67 58 VRB5 30.06R ROCKY MOUNT SUNNY 81 64 56 NE6 30.08S WASHINGTON SUNNY 82 65 57 N8 30.06S WHITEVILLE SUNNY 83 68 61 CALM 30.04S $$ AMZ130-135-150-152-154-156-158-170-250-252-270-ANZ085-086-088-633-658-670-231700- MARINE OBSERVATIONS STATION/POSITION TIME TEMP WIND PRES WAVE SWELL AIR SEA DIR/SP/G HT/PER HT/PER (UTC) (F) (DEG/KT/KT) (MB) (FT/S) (FT/S) CHESAPEAKE LIGHT NOT AVBL 64 E VA BEACH 1550 70 70 10/ 8/ 10 1017.6 9/14 10/14 DUCK 1542 74 76 10/ 9/ 11 1017.1 2 E DUCK 1600 77 N/A 5/11 3/11 OREGON INLET 1542 78 78 10/ 7/ 11 1017.2 13E OREGON INLT 1548 75 N/A 6/11 7/11 HATTERAS CG 1542 78 78 30/ 8/ 10 1017.3 DIAMOND BUOY 1550 76 76 40/ 10/ 10 1017.1 8/13 8/13 CAPE LOOKOUT 1600 80 30/ 9/ 11 1016.8 BEAUFORT LAB 1542 79 76 10/ 9/ 13 1016.6 30 SE NEW RVR IN 1508 78 350/ 8/ 10 1016.7 30 SE NEW RVR IN NOT AVBL 27 SE WRIGHTSVLE 1508 78 80 350/ 8/ 12 1016.9 5 SE WRIGHTSVLE 1508 76 79 20/ 6/ 10 1017.0 225 S CAPE HAT 1550 79 79 60/ 17/ 19 1014.8 10/11 8/11 41 SE CHARLESTON 1550 81 82 60/ 16/ 19 1015.8 7/12 7/12 $$

USA.gov is the U.S. government's official web portal to all federal, state and local government web resources and services.